Back to catalog

COSMOS 991

AliveNavigationPO
NORAD 10692·PAYLOAD·🇷🇺 Russia

Launched Feb 28, 1978 from Plesetsk Cosmodrome

Loading…

Next Passes (next 24 hours)

TLE

FreshSource: Space-Track

Epoch: Sep 14, 2026, 05:28 UTC

1 10692U 78022A   26257.22834256  .00000062  00000-0  47239-4 0  9998
2 10692  82.9917 180.9652 0037522  40.8821 122.2322 13.76577589437623

Track COSMOS 991 in real time with AllMySat

Download on the App Store